Current Conditions
Light Rain
Showers



Pressure
1011.85 (hPa) - 29.88 (inHG)
Visibility

9.7 (km) - 6.0 (miles)
Temperature
8  °C
Temperature
7  °C
Dewpoint
93  %
 Humidity
Wind Speed
14  km/h
8  kts
9  mph
4.0  m/s
Wind Direction
N
45°
E
90°
135°
S
180°
225°
W
270°
315°
 290°

West North
West
Airport Data
LELN
León Airport
Metar :LELN 181600Z 29008KT 260V320 9999 SHRA BKN020 FEW040TCU BKN050 08/07 Q1012
Sat 18th May 18:00 pm
Raw Metar Info
Raw METAR is the most common format in the world for the transmission of observational weather data. It is highly standardized through the International Civil Aviation Organization (ICAO), which allows it to be understood throughout most of the world.
API Info
Data Provided by
https://www.checkwx.com/weather/LELN

Aviation Weather providing METAR, TAF, AIRMET, SIGMET and OUTLOOK Weather Reports
© Info
CSS/SVG/PHP scripts were developed by weather34 for use in the weather34 template © 2015-2024

Guide Info provided by Metar-Wikipedia